EW9259 Weather Reports


time (UTC)temp
F
wind
direction
speed
knots
gust
knots
rain 1hr
in
rain 24hr
in
rain mn
in
humidity
%
barometer
mb
20260510061004 72 0 0.0 0.0 0.00 0.00 0.00 76 1010.9
20260510060504 72 0 0.0 0.0 0.00 0.00 0.00 75 1011.0
20260510060006 72 0 0.0 0.0 0.00 0.00 0.00 75 1011.0
20260510055505 72 0 0.0 0.0 0.00 0.00 0.00 74 1011.0
20260510055004 72 0 0.0 0.0 0.00 0.00 0.00 74 1011.0
20260510054505 72 0 0.0 0.0 0.00 0.00 0.00 74 1011.0
20260510054005 72 0 0.0 0.0 0.00 0.00 0.00 74 1011.1
20260510053505 72 0 0.0 0.0 0.00 0.00 0.00 74 1011.1
20260510053005 72 0 0.0 0.0 0.00 0.00 0.00 73 1011.0
20260510052505 72 0 0.0 0.0 0.00 0.00 0.00 73 1011.1
20260510052005 72 0 0.0 0.0 0.00 0.00 0.00 73 1011.1
20260510051504 72 0 0.0 0.0 0.00 0.00 0.00 73 1011.1
20260510051005 72 0 0.0 0.0 0.00 0.00 0.00 73 1011.1
20260510050505 72 0 0.0 0.0 0.00 0.00 0.00 73 1011.0
20260510045504 73 0 0.0 0.0 0.00 0.00 0.00 72 1011.1
20260510044005 74 0 0.0 0.0 0.00 0.00 0.00 71 1011.2
20260510043504 74 0 0.0 0.0 0.00 0.00 0.00 71 1011.2
20260510043004 74 0 0.0 0.0 0.00 0.00 0.00 71 1011.2
20260510042506 74 0 0.0 0.0 0.00 0.00 0.00 71 1011.3
20260510042005 74 0 0.0 0.0 0.00 0.00 0.00 70 1011.2
20260510041504 74 0 0.0 0.0 0.00 0.00 0.00 70 1011.2
20260510041005 74 0 0.0 0.0 0.00 0.00 0.00 70 1011.2
20260510040504 74 0 0.0 0.0 0.00 0.00 0.00 70 1011.2
20260510035504 74 0 0.0 0.0 0.00 0.00 0.00 68 1011.1
20260510035005 75 0 0.0 0.0 0.00 0.00 0.00 67 1011.2
20260510034505 76 0 0.0 0.0 0.00 0.00 0.00 66 1011.1
20260510034004 76 0 0.0 0.0 0.00 0.00 0.00 65 1011.1
20260510033005 77 0 0.0 0.0 0.00 0.00 0.00 65 1011.2
20260510032504 77 0 0.0 0.0 0.00 0.00 0.00 65 1011.1
20260510032004 77 0 0.0 0.0 0.00 0.00 0.00 64 1011.0
20260510031505 78 0 0.0 0.0 0.00 0.00 0.00 64 1011.1
20260510031005 79 0 0.0 0.0 0.00 0.00 0.00 63 1011.0
20260510030504 79 0 0.0 0.0 0.00 0.00 0.00 62 1011.0
20260510030005 80 0 0.0 0.0 0.00 0.00 0.00 60 1010.8
20260510025004 81 0 0.0 0.0 0.00 0.00 0.00 58 1010.7
20260510024005 81 0 0.0 0.0 0.00 0.00 0.00 57 1010.5
20260510023004 82 0 0.0 0.0 0.00 0.00 0.00 56 1010.2
20260510022505 82 0 0.0 0.9 0.00 0.00 0.00 55 1010.1
20260510022005 83 0 0.0 0.9 0.00 0.00 0.00 55 1010.3
20260510021504 83 0 0.0 0.0 0.00 0.00 0.00 54 1010.2
20260510021005 83 0 0.0 0.0 0.00 0.00 0.00 53 1010.1
20260510020504 84 0 0.0 0.0 0.00 0.00 0.00 52 1010.1
20260510020005 84 0 0.0 0.0 0.00 0.00 0.00 51 1009.9
20260510015505 84 0 0.0 0.0 0.00 0.00 0.00 50 1009.7
20260510015004 84 0 0.0 0.0 0.00 0.00 0.00 49 1009.6
20260510014505 85 0 0.0 0.0 0.00 0.00 0.00 48 1009.6
20260510014004 85 0 0.0 0.0 0.00 0.00 0.00 48 1009.5
20260510013504 85 0 0.0 0.0 0.00 0.00 0.00 47 1009.5
20260510013004 86 0 0.0 0.0 0.00 0.00 0.00 47 1009.4
20260510012505 86 0 0.0 0.0 0.00 0.00 0.00 46 1009.3
20260510012004 86 0 0.0 0.0 0.00 0.00 0.00 46 1009.3
20260510011507 87 0 0.0 0.0 0.00 0.00 0.00 45 1009.3
20260510011004 87 0 0.0 0.0 0.00 0.00 0.00 45 1009.3
20260510010505 88 0 0.0 0.0 0.00 0.00 0.00 44 1009.2
20260510010007 88 157 0.9 4.3 0.00 0.00 0.00 43 1009.1
20260510005504 88 158 1.7 6.1 0.00 0.00 0.00 43 1009.0
20260510004505 89 161 2.6 6.1 0.00 0.00 0.00 42 1009.2
20260510004004 89 152 2.6 6.1 0.00 0.00 0.00 43 1009.0
20260510003504 89 156 2.6 6.1 0.00 0.00 0.00 43 1009.0
20260510003005 89 160 2.6 7.0 0.00 0.00 0.00 43 1009.0
20260510001505 89 150 2.6 6.1 0.00 0.00 0.00 40 1009.2
20260510001005 89 149 0.9 4.3 0.00 0.00 0.00 39 1009.1
20260510000504 89 150 0.9 5.2 0.00 0.00 0.00 40 1009.1
20260510000005 89 156 1.7 6.1 0.00 0.00 0.00 38 1009.1
20260509235504 90 157 3.5 7.0 0.00 0.00 0.00 39 1009.0
20260509235004 90 159 4.3 7.8 0.00 0.00 0.00 37 1009.0
20260509234504 90 160 4.3 8.7 0.00 0.00 0.00 33 1008.9
20260509234005 90 156 4.3 8.7 0.00 0.00 0.00 38 1009.0
20260509233505 90 157 4.3 8.7 0.00 0.00 0.00 41 1009.0
20260509233004 90 155 4.3 8.7 0.00 0.00 0.00 41 1009.1
20260509232505 90 154 2.6 7.8 0.00 0.00 0.00 37 1009.2
20260509231505 91 176 0.9 7.8 0.00 0.00 0.00 34 1009.1
20260509231004 91 176 1.7 7.8 0.00 0.00 0.00 34 1009.3
20260509230504 91 162 2.6 6.1 0.00 0.00 0.00 36 1009.3
20260509225504 91 166 1.7 6.1 0.00 0.00 0.00 38 1009.3
20260509225004 91 164 2.6 7.0 0.00 0.00 0.00 39 1009.3
20260509224505 91 160 2.6 7.0 0.00 0.00 0.00 36 1009.3
20260509223504 91 161 3.5 7.8 0.00 0.00 0.00 40 1009.2
20260509223004 91 158 3.5 7.8 0.00 0.00 0.00 38 1009.3
20260509222005 90 163 2.6 9.6 0.00 0.00 0.00 42 1009.3
20260509221504 90 160 2.6 9.6 0.00 0.00 0.00 40 1009.3
20260509221004 91 157 1.7 7.0 0.00 0.00 0.00 41 1009.3
20260509220504 91 0 0.0 1.7 0.00 0.00 0.00 44 1009.4
20260509220005 91 0 0.0 2.6 0.00 0.00 0.00 45 1009.5
20260509215504 91 0 0.0 5.2 0.00 0.00 0.00 44 1009.6
20260509215004 91 206 0.9 7.0 0.00 0.00 0.00 45 1009.6
20260509214505 90 212 1.7 7.0 0.00 0.00 0.00 46 1009.6
20260509214005 90 222 0.9 7.0 0.00 0.00 0.00 47 1009.7
20260509213504 90 0 0.0 1.7 0.00 0.00 0.00 46 1009.8
20260509213005 90 0 0.0 1.7 0.00 0.00 0.00 45 1009.8
20260509212504 90 0 0.0 3.5 0.00 0.00 0.00 44 1009.9
20260509212005 90 0 0.0 3.5 0.00 0.00 0.00 44 1010.0
20260509211504 90 0 0.0 0.9 0.00 0.00 0.00 46 1010.1
20260509211004 90 229 0.9 7.0 0.00 0.00 0.00 45 1010.2
20260509210504 89 198 0.9 7.0 0.00 0.00 0.00 46 1010.3
20260509210005 89 172 2.6 8.7 0.00 0.00 0.00 46 1010.2
20260509205504 89 176 3.5 8.7 0.00 0.00 0.00 48 1010.2
20260509205004 89 181 3.5 8.7 0.00 0.00 0.00 49 1010.3
20260509204505 89 199 3.5 8.7 0.00 0.00 0.00 49 1010.4
20260509204004 89 218 1.7 5.2 0.00 0.00 0.00 47 1010.3
20260509203504 89 183 0.9 6.1 0.00 0.00 0.00 48 1010.4
20260509203004 89 169 2.6 6.1 0.00 0.00 0.00 47 1010.5
20260509202504 89 169 3.5 9.6 0.00 0.00 0.00 47 1010.5
20260509202004 89 192 3.5 9.6 0.00 0.00 0.00 46 1010.7
20260509201504 89 201 2.6 9.6 0.00 0.00 0.00 50 1010.8
20260509201004 88 187 2.6 7.8 0.00 0.00 0.00 50 1010.8
20260509200504 88 194 1.7 6.1 0.00 0.00 0.00 50 1010.9
20260509200004 88 178 3.5 8.7 0.00 0.00 0.00 52 1010.9
20260509195504 87 168 4.3 8.7 0.00 0.00 0.00 50 1011.1
20260509195004 87 166 4.3 11.3 0.00 0.00 0.00 50 1011.2
20260509194505 87 173 3.5 11.3 0.00 0.00 0.00 51 1011.2
20260509194004 87 185 1.7 7.8 0.00 0.00 0.00 51 1011.4
20260509193504 87 196 0.9 7.8 0.00 0.00 0.00 52 1011.5
20260509193004 87 173 2.6 9.6 0.00 0.00 0.00 54 1011.6
20260509192504 87 176 3.5 9.6 0.00 0.00 0.00 53 1011.7
20260509192005 87 179 3.5 9.6 0.00 0.00 0.00 52 1011.7
20260509191504 86 169 4.3 9.6 0.00 0.00 0.00 54 1011.7
20260509191004 86 165 2.6 8.7 0.00 0.00 0.00 53 1011.7
20260509190504 86 160 3.5 10.4 0.00 0.00 0.00 56 1011.7
20260509190004 86 161 5.2 10.4 0.00 0.00 0.00 55 1011.8
20260509185504 86 169 4.3 8.7 0.00 0.00 0.00 55 1011.7
20260509185004 86 170 3.5 8.7 0.00 0.00 0.00 55 1011.9
20260509184504 86 164 3.5 8.7 0.00 0.00 0.00 56 1012.0
20260509184004 85 169 2.6 9.6 0.00 0.00 0.00 55 1011.9
20260509183504 86 193 1.7 9.6 0.00 0.00 0.00 55 1012.0
20260509183004 86 202 1.7 8.7 0.00 0.00 0.00 55 1012.2
20260509182503 85 184 0.9 8.7 0.00 0.00 0.00 57 1012.4
20260509182004 84 164 0.9 7.0 0.00 0.00 0.00 57 1012.3
20260509181505 84 194 0.9 9.6 0.00 0.00 0.00 57 1012.5
20260509181003 84 194 0.9 9.6 0.00 0.00 0.00 57 1012.7
20260509180004 84 0 0.0 0.9 0.00 0.00 0.00 61 1012.7
20260509175505 83 188 0.9 6.1 0.00 0.00 0.00 63 1012.7
20260509175004 83 188 0.9 6.1 0.00 0.00 0.00 61 1012.8
20260509174504 83 0 0.0 0.9 0.00 0.00 0.00 63 1012.9
20260509173503 82 0 0.0 0.9 0.00 0.00 0.00 64 1013.0
20260509172504 81 0 0.0 0.9 0.00 0.00 0.00 67 1013.0
20260509172004 80 0 0.0 0.0 0.00 0.00 0.00 68 1013.1
20260509171004 80 0 0.0 0.0 0.00 0.00 0.00 72 1013.4
20260509170504 79 0 0.0 0.0 0.00 0.00 0.00 71 1013.4
20260509170004 78 0 0.0 6.1 0.00 0.00 0.00 73 1013.4
20260509165504 78 0 0.0 6.1 0.00 0.00 0.00 72 1013.4
20260509164505 78 218 0.9 6.1 0.00 0.00 0.00 72 1013.4
20260509164004 78 214 0.9 6.1 0.00 0.00 0.00 74 1013.5
20260509163504 77 0 0.0 0.9 0.00 0.00 0.00 74 1013.4
20260509162004 76 0 0.0 0.0 0.00 0.00 0.00 76 1013.5
20260509161504 76 0 0.0 5.2 0.00 0.00 0.00 77 1013.4
20260509161004 75 208 0.9 6.1 0.00 0.00 0.00 77 1013.4
20260509160004 75 0 0.0 5.2 0.00 0.00 0.00 79 1013.3
20260509155504 74 0 0.0 0.0 0.00 0.00 0.00 80 1013.4
20260509154504 73 182 0.9 5.2 0.00 0.00 0.00 81 1013.5
20260509154003 72 168 1.7 6.1 0.00 0.00 0.00 83 1013.5
20260509153504 72 163 0.9 6.1 0.00 0.00 0.00 83 1013.5
20260509153004 72 0 0.0 0.9 0.00 0.00 0.00 83 1013.6
20260509152504 72 0 0.0 0.0 0.00 0.00 0.00 84 1013.7
20260509152004 72 0 0.0 0.0 0.00 0.00 0.00 84 1013.7
20260509151504 71 0 0.0 0.0 0.00 0.00 0.00 85 1013.7
20260509151004 71 0 0.0 0.0 0.00 0.00 0.00 86 1013.8
20260509150504 71 0 0.0 0.0 0.00 0.00 0.00 85 1013.8
20260509145503 70 0 0.0 0.0 0.00 0.00 0.00 87 1014.1
20260509145004 69 0 0.0 0.0 0.00 0.00 0.00 89 1014.0
20260509144504 69 0 0.0 0.0 0.00 0.00 0.00 89 1014.0
20260509144003 68 0 0.0 0.0 0.00 0.00 0.00 92 1014.1
20260509143505 67 0 0.0 0.0 0.00 0.00 0.00 92 1014.1
20260509142003 65 0 0.0 0.0 0.00 0.00 0.00 96 1013.8
20260509141504 65 0 0.0 0.0 0.00 0.00 0.00 96 1013.7
20260509141003 65 0 0.0 0.0 0.00 0.00 0.00 97 1013.7
20260509140503 64 0 0.0 0.0 0.00 0.00 0.00 96 1013.6
20260509140005 64 0 0.0 0.0 0.00 0.00 0.00 97 1013.6
20260509135504 64 0 0.0 0.0 0.00 0.00 0.00 97 1013.8
20260509135004 64 0 0.0 0.0 0.00 0.00 0.00 97 1013.7
20260509134505 63 0 0.0 0.0 0.00 0.00 0.00 97 1013.6
20260509134004 63 0 0.0 0.0 0.00 0.00 0.00 96 1013.6
20260509133503 63 0 0.0 0.0 0.00 0.00 0.00 96 1013.6
20260509133004 63 0 0.0 0.0 0.00 0.00 0.00 97 1013.8
20260509132503 63 0 0.0 0.0 0.00 0.00 0.00 96 1013.6
20260509131004 62 0 0.0 0.0 0.00 0.00 0.00 96 1013.3
20260509130504 62 0 0.0 0.0 0.00 0.00 0.00 96 1013.3
20260509130004 62 0 0.0 0.0 0.00 0.00 0.00 96 1013.3
20260509125504 62 0 0.0 0.0 0.00 0.00 0.00 96 1013.4
20260509125004 62 0 0.0 0.0 0.00 0.00 0.00 96 1013.2
20260509123504 62 0 0.0 0.0 0.00 0.00 0.00 96 1012.9
20260509123003 62 0 0.0 0.0 0.00 0.00 0.00 96 1012.9
20260509122503 61 0 0.0 0.0 0.00 0.00 0.00 96 1012.7
20260509122004 61 0 0.0 0.0 0.00 0.00 0.00 96 1012.7
20260509121504 61 0 0.0 0.0 0.00 0.00 0.00 96 1012.7
20260509121003 60 0 0.0 0.0 0.00 0.00 0.00 96 1012.6
20260509120504 61 0 0.0 0.0 0.00 0.00 0.00 96 1012.6
20260509120004 61 0 0.0 0.0 0.00 0.00 0.00 96 1012.6
20260509115504 61 0 0.0 0.0 0.00 0.00 0.00 96 1012.5
20260509115003 61 0 0.0 0.0 0.00 0.00 0.00 96 1012.5
20260509114504 61 0 0.0 0.0 0.00 0.00 0.00 95 1012.4
20260509114004 61 0 0.0 0.0 0.00 0.00 0.00 95 1012.3
20260509113004 60 0 0.0 3.5 0.00 0.00 0.00 95 1012.3
20260509112503 60 0 0.0 0.0 0.00 0.00 0.00 95 1012.3
20260509111504 61 0 0.0 0.0 0.00 0.00 0.00 94 1012.5
20260509111004 61 0 0.0 0.0 0.00 0.00 0.00 94 1012.5
20260509110503 61 0 0.0 0.0 0.00 0.00 0.00 94 1012.6
20260509110006 61 0 0.0 0.0 0.00 0.00 0.00 94 1012.7
20260509105506 61 0 0.0 0.0 0.00 0.00 0.00 94 1012.6
20260509105006 61 0 0.0 0.0 0.00 0.00 0.00 94 1012.6
20260509104007 62 0 0.0 0.0 0.00 0.00 0.00 94 1012.6
20260509103006 62 0 0.0 0.0 0.00 0.00 0.00 94 1012.7
20260509102506 62 0 0.0 0.0 0.00 0.00 0.00 94 1012.8
20260509102006 62 0 0.0 0.0 0.00 0.00 0.00 93 1012.7
20260509101506 62 0 0.0 0.0 0.00 0.00 0.00 94 1012.7
20260509101006 62 0 0.0 0.0 0.00 0.00 0.00 94 1012.8
20260509100507 62 0 0.0 0.0 0.00 0.00 0.00 94 1012.8
20260509100006 62 0 0.0 0.0 0.00 0.00 0.00 93 1012.8
20260509095506 62 0 0.0 0.0 0.00 0.00 0.00 93 1012.8
20260509095005 62 0 0.0 0.0 0.00 0.00 0.00 93 1012.9
20260509094006 62 0 0.0 0.0 0.00 0.00 0.00 93 1012.7
20260509093506 62 0 0.0 0.0 0.00 0.00 0.00 93 1012.5
20260509093006 62 0 0.0 0.0 0.00 0.00 0.00 93 1012.4
20260509091006 63 0 0.0 0.0 0.00 0.00 0.00 91 1012.8
20260509090007 63 0 0.0 0.0 0.00 0.00 0.00 92 1012.6
20260509085506 63 0 0.0 0.0 0.00 0.00 0.00 91 1012.3
20260509085006 63 0 0.0 0.0 0.00 0.00 0.00 92 1012.4
20260509084007 63 0 0.0 0.0 0.00 0.00 0.00 93 1012.3
20260509083506 63 0 0.0 0.0 0.00 0.00 0.00 93 1012.3
20260509083007 62 0 0.0 0.0 0.00 0.00 0.00 93 1012.1
20260509082506 62 0 0.0 0.0 0.00 0.00 0.00 93 1012.3
20260509082006 62 0 0.0 0.0 0.00 0.00 0.00 93 1012.4
20260509081506 62 0 0.0 0.0 0.00 0.00 0.00 93 1012.5
20260509081007 62 0 0.0 0.0 0.00 0.00 0.00 92 1012.7
20260509080506 62 0 0.0 0.0 0.00 0.00 0.00 92 1012.7
20260509075006 63 0 0.0 0.0 0.00 0.00 0.00 91 1012.8
20260509074507 63 0 0.0 0.0 0.00 0.00 0.00 91 1012.8
20260509074006 64 0 0.0 0.0 0.00 0.00 0.00 91 1012.7
20260509073508 64 0 0.0 0.0 0.00 0.00 0.00 91 1012.8
20260509073006 63 0 0.0 0.0 0.00 0.00 0.00 92 1012.9
20260509072505 63 0 0.0 0.0 0.00 0.00 0.00 92 1012.4
20260509072005 63 0 0.0 0.0 0.00 0.00 0.00 92 1012.4
20260509071506 63 0 0.0 0.0 0.00 0.00 0.00 93 1012.5
20260509071006 63 0 0.0 0.0 0.00 0.00 0.00 92 1012.1
20260509070506 63 0 0.0 0.0 0.00 0.00 0.00 92 1011.8
20260509070006 63 0 0.0 0.0 0.00 0.00 0.00 91 1011.8
20260509065505 63 0 0.0 0.0 0.00 0.00 0.00 91 1011.7
20260509065005 64 0 0.0 0.0 0.00 0.00 0.00 91 1011.7
20260509064506 64 0 0.0 0.0 0.00 0.00 0.00 91 1011.7
20260509064006 64 0 0.0 0.0 0.00 0.00 0.00 90 1011.7
20260509063006 64 0 0.0 0.0 0.00 0.00 0.00 90 1011.6
20260509062005 65 0 0.0 0.0 0.00 0.00 0.00 90 1011.4
20260509061507 65 0 0.0 0.0 0.00 0.00 0.00 90 1011.4